Regional Weather Roundup
Issued by NWS

Home | Current Version | Previous Version | Text Only | Print | Product List | Glossary Off
Versions: 1 2 3 4 5 6 7 8 9 10 11 12 13 14 15 16 17 18 19 20 21 22 23 24 25 26 27 28 29 30 31 32 33 34 35 36 37 38 39 40 41 42 43 44 45 46 47 48 49 50

000
ASUS43 KIND 182100
RWRIN

WEATHER ROUNDUP FOR INDIANA
NATIONAL WEATHER SERVICE INDIANAPOLIS IN
500 PM EDT MON SEP 18 2017

NOTE: "FAIR" INDICATES FEW OR NO CLOUDS BELOW 12,000 FEET WITH NO
SIGNIFICANT WEATHER AND/OR OBSTRUCTIONS TO VISIBILITY.

* - STATION DOES NOT REPORT WEATHER SUCH AS PRECIPITATION OR FOG.

+ - STATION NOT QUALITY CONTROLLED BY THE NATIONAL WEATHER SERVICE.
    USE DATA WITH CAUTION...ESPECIALLY DEWPOINT AND RELATIVE
    HUMIDITY OBSERVATIONS.

INZ001>003-010>013-019-020-182200-
NORTHWEST INDIANA

CITY           SKY/WX    TMP DP  RH WIND       PRES   REMARKS

$$

LMZ046-743>745-182200-
SOUTHERN LAKE MICHIGAN

STATION/POSITION TIME  TEMP    WIND        PRES    WAVE
                       AIR SEA DIR/SP/G            HT
                 (UTC) (F)     (DEG/KT/KT) (MB)    (FT)
BURNS HARBOR     2040   68      40/ 10/ 11 1017.6F
MICHIGAN CITY    2030   66      30/  9/ 10   N/A
5NW MICH CITY    2050   67 69   40/  8/ 10   N/A     2

$$

INZ004-005-014>016-021>024-182200-
NORTH CENTRAL INDIANA

CITY           SKY/WX    TMP DP  RH WIND       PRES   REMARKS
ELKHART        PTSUNNY   77  46  33 CALM      30.03F
GOSHEN         MOSUNNY   80  54  40 E5        30.03F
SOUTH BEND     PTSUNNY   79  50  36 MISG      30.03F

$$

INZ006>009-017-018-025>027-182200-
NORTHEAST INDIANA

CITY           SKY/WX    TMP DP  RH WIND       PRES   REMARKS
FORT WAYNE     PTSUNNY   82  65  56 CALM      30.03F
KENDALLVILLE + MOSUNNY   78  65  63 CALM      30.04F

$$

INZ028-029-035-036-043>045-051>053-182200-
WEST CENTRAL INDIANA

CITY           SKY/WX    TMP DP  RH WIND       PRES   REMARKS
LAFAYETTE      CLOUDY    79  68  69 NE6       29.99F
TERRE HAUTE    CLOUDY    82  66  58 S13G28    29.98F

$$

INZ030>032-037>040-046>048-054>057-064-065-182200-
CENTRAL INDIANA

CITY           SKY/WX    TMP DP  RH WIND       PRES   REMARKS
COLUMBUS       MOSUNNY   81  64  57 S8        30.00F
INDIANAPOLIS   PTSUNNY   83  69  62 N6        29.98F
-EAGLE CREEK   MOSUNNY   82  67  60 SW3       29.99F
KOKOMO +       PTSUNNY   81  68  64 NE7       30.02F
MT COMFORT *+    N/A    N/A N/A N/A MISG        N/A
SHELBYVILLE    PTSUNNY   84  65  52 S7        29.99F

$$

INZ033-034-041-042-049-050-058-059-182200-
EAST CENTRAL INDIANA

CITY           SKY/WX    TMP DP  RH WIND       PRES   REMARKS
MUNCIE         SUNNY     83  66  56 CALM      30.01F
RICHMOND +     MOSUNNY   77  70  78 W3        30.03F

$$

INZ060-061-067>069-081>083-085>088-182200-
SOUTHWEST INDIANA

CITY           SKY/WX    TMP DP  RH WIND       PRES   REMARKS
EVANSVILLE     CLOUDY    73  68  84 SW8       30.01S
HUNTINGBURG +    N/A    N/A N/A N/A MISG        N/A

$$

INZ062-063-066-070>080-084-089>092-182200-
SOUTH CENTRAL AND SOUTHEAST INDIANA

CITY           SKY/WX    TMP DP  RH WIND       PRES   REMARKS
BLOOMINGTON    PTSUNNY   80  68  66 S5        30.00F
MADISON *+     MOSUNNY   79  64  61 SW3       30.03F
SEYMOUR +      CLOUDY    82  64  54 S5        30.00F

$$





USA.gov is the U.S. government's official web portal to all federal, state and local government web resources and services.